Location: Marse
(42.1502°N, 110.9866°W)
Time: 04:13:15
(UTC+00:00)

Oscar 19 - Pass Details

Date: 03 July 2022
Orbit: 773 x 790 km, 98.8° (Epoch: 07 August)

Event Time Altitude Azimuth Distance (km) Brightness Sun altitude
Rises 11:02:52 0° 13° (NNE) 3,259 14.8 -8.2°
Reaches altitude 10° 11:05:11 10° 13° (NNE) 2,327 14.0 -7.9°
Maximum altitude 11:10:19 87° 285° (WNW) 780 10.7 -7.2°
Drops below altitude 10° 11:15:25 10° 197° (SSW) 2,313 12.6 -6.4°
Enters shadow 11:17:21 - 197° (SSW) 3,089 13.2 -6.2°
